Liberal, KS

5:14 AM CDT on August 20, 2019 (GMT -0500)
Liberal Municipal

Weather History for KLBL - July, 2019

Change the Weather History Date:

Sunday, July 21, 2019

  Actual Average Record
Temperature  
Mean Temperature 80 °F -  
Max Temperature 90 °F 92 °F 105 °F (1981)
Min Temperature 69 °F 65 °F 52 °F (1970)
Cooling Degree Days 14    
Growing Degree Days 30 (Base 50)    
Moisture  
Dew Point 65 °F    
Average Humidity 66    
Maximum Humidity 87    
Minimum Humidity 45    
Precipitation  
Precipitation 0.42 in - - ()
Sea Level Pressure  
Sea Level Pressure 29.96 in    
Wind  
Wind Speed 13 mph (NNE)    
Max Wind Speed 24 mph    
Max Gust Speed 33 mph    
Visibility 10 miles    
Events Rain , Thunderstorm    
Averages and records for this station are not official NWS values.
T = Trace of Precipitation, MM = Missing Value Source: NWS Daily Summary

Daily Weather History Graph

Daily Weather History Graph

Search for Another Location

Airport or City:

Astronomy

Jul. 21, 2019 Rise Set
Actual Time 6:40 AM CDT 8:59 PM CDT
Civil Twilight 6:10 AM CDT 9:29 PM CDT
Nautical Twilight 5:34 AM CDT 10:05 PM CDT
Astronomical Twilight 4:54 AM CDT 10:45 PM CDT
Moon No Moon Rise 10:57 AM CDT (7/21)
Length of Visible Light 15h 18m
Length of Day
14h 19m
Waning Gibbous, 80% of the Moon is Illuminated
Jul 21
Waning Gibbous
Jul 24
Last Quarter
Jul 31
New
Aug 7
First Quarter
Aug 15
Full

Hourly Weather History & Observations

Time (CDT) Temp. Heat Index Dew Point Humidity Pressure Visibility Wind Dir Wind Speed Gust Speed Precip Events Conditions
12:56 AM 71.1 °F - 64.9 °F 81% 29.93 in 10.0 mi NNW 16.1 mph 27.6 mph 0.11 in Rain , Thunderstorm Thunderstorms and Rain
1:56 AM 70.0 °F - 64.0 °F 81% 29.89 in 10.0 mi WNW 18.4 mph - 0.07 in Rain , Thunderstorm Thunderstorms and Rain
2:00 AM 69.8 °F - 64.4 °F 83% 30.02 in 10.0 mi WNW 16.1 mph - 0.01 in Rain , Thunderstorm Thunderstorms and Rain
2:26 AM 69.8 °F - 64.4 °F 83% 30.03 in 10.0 mi West 24.2 mph 33.4 mph 0.05 in Rain , Thunderstorm Light Rain
2:56 AM 69.1 °F - 64.9 °F 87% 29.96 in 10.0 mi West 15.0 mph - 0.10 in Rain , Thunderstorm Light Rain
3:05 AM 69.8 °F - 64.4 °F 83% 30.07 in 10.0 mi WNW 9.2 mph - 0.01 in Rain Rain
3:56 AM 69.1 °F - 64.9 °F 87% 29.90 in 10.0 mi East 11.5 mph - 0.12 in Rain Light Rain
4:56 AM 71.1 °F - 62.1 °F 73% 29.83 in 10.0 mi ESE 10.4 mph - 0.02 in Rain Light Rain
5:56 AM 72.0 °F - 62.1 °F 71% 29.81 in 10.0 mi SE 6.9 mph - 0.00 in   Clear
6:56 AM 72.0 °F - 63.0 °F 73% 29.80 in 10.0 mi South 3.5 mph - N/A   Clear
7:56 AM 70.0 °F - 64.0 °F 81% 29.86 in 10.0 mi WNW 5.8 mph - N/A   Clear
9:03 AM 73.4 °F - 64.4 °F 73% 30.03 in 10.0 mi NE 10.4 mph - N/A   Clear
9:56 AM 77.0 °F - 66.0 °F 69% 29.94 in 10.0 mi ENE 11.5 mph - N/A   Clear
10:56 AM 78.1 °F - 64.9 °F 64% 29.94 in 10.0 mi East 11.5 mph - N/A   Clear
11:56 AM 82.9 °F 84.6 °F 64.9 °F 54% 29.95 in 10.0 mi East 11.5 mph - N/A   Clear
12:56 PM 84.9 °F 86.6 °F 64.9 °F 51% 29.96 in 10.0 mi ESE 9.2 mph - N/A   Clear
1:56 PM 87.1 °F 88.3 °F 64.0 °F 46% 29.96 in 5.0 mi ENE 6.9 mph - N/A   Haze
2:05 PM 87.8 °F 89.4 °F 64.4 °F 46% 30.06 in 2.0 mi Variable 5.8 mph - N/A   Haze
2:14 PM 87.8 °F 89.4 °F 64.4 °F 46% 30.05 in 10.0 mi East 6.9 mph - N/A   Clear
2:56 PM 88.0 °F 89.6 °F 64.9 °F 46% 29.94 in 10.0 mi Variable 3.5 mph - N/A   Clear
3:56 PM 90.0 °F 92.4 °F 66.0 °F 45% 29.94 in 10.0 mi ENE 8.1 mph - N/A   Clear
4:56 PM 90.0 °F 93.6 °F 68.0 °F 48% 29.94 in 10.0 mi NE 11.5 mph - N/A   Clear
5:56 PM 89.1 °F 92.9 °F 68.0 °F 50% 29.93 in 10.0 mi North 11.5 mph 24.2 mph N/A   Clear
6:56 PM 89.1 °F 92.9 °F 68.0 °F 50% 29.93 in 10.0 mi North 11.5 mph - N/A   Clear
7:56 PM 86.0 °F 88.8 °F 66.9 °F 53% 29.94 in 10.0 mi NNE 11.5 mph - N/A   Clear
8:56 PM 82.0 °F 84.9 °F 68.0 °F 62% 29.98 in 10.0 mi NNE 13.8 mph - N/A   Clear
9:56 PM 78.1 °F - 68.0 °F 71% 30.01 in 10.0 mi NNE 15.0 mph - N/A   Clear
10:56 PM 75.9 °F - 66.9 °F 74% 30.05 in 10.0 mi NNE 13.8 mph - N/A   Clear
11:56 PM 75.0 °F - 66.0 °F 73% 30.05 in 10.0 mi NNE 13.8 mph - N/A   Clear